TimeCDT,TemperatureF,Dew PointF,Humidity,Sea Level PressureIn,VisibilityMPH,Wind Direction,Wind SpeedMPH,Gust SpeedMPH,PrecipitationIn,Events,Conditions,WindDirDegrees,DateUTC
12:52 AM,62.1,46.9,58,29.69,-9999.0,NNW,16.1,26.5,N/A,,Unknown,340,2013-10-01 05:52:00
1:52 AM,57.9,46.9,67,29.76,-9999.0,NNW,12.7,-,N/A,,Unknown,330,2013-10-01 06:52:00
2:52 AM,55.9,45.0,67,29.78,-9999.0,NNW,12.7,-,N/A,,Unknown,340,2013-10-01 07:52:00
3:52 AM,54.0,43.0,66,29.81,-9999.0,NNW,12.7,-,N/A,,Unknown,330,2013-10-01 08:52:00
4:52 AM,50.0,42.1,74,29.84,-9999.0,NNW,5.8,-,N/A,,Unknown,340,2013-10-01 09:52:00
5:52 AM,52.0,42.1,69,29.85,-9999.0,North,12.7,-,N/A,,Unknown,10,2013-10-01 10:52:00
6:52 AM,51.1,41.0,68,29.90,-9999.0,NNW,10.4,-,N/A,,Unknown,340,2013-10-01 11:52:00
7:52 AM,48.9,39.9,71,29.93,-9999.0,North,12.7,-,N/A,,Unknown,350,2013-10-01 12:52:00
8:52 AM,53.1,39.0,59,29.96,-9999.0,NNW,6.9,-,N/A,,Unknown,340,2013-10-01 13:52:00
9:52 AM,60.1,37.9,44,29.96,-9999.0,North,8.1,-,N/A,,Unknown,350,2013-10-01 14:52:00
10:52 AM,64.9,37.9,37,29.97,-9999.0,NNE,8.1,-,N/A,,Unknown,30,2013-10-01 15:52:00
11:52 AM,69.1,30.9,24,29.99,-9999.0,ENE,4.6,-,N/A,,Unknown,70,2013-10-01 16:52:00
12:52 PM,71.1,28.9,21,29.99,-9999.0,NE,4.6,-,N/A,,Unknown,50,2013-10-01 17:52:00
1:52 PM,72.0,28.0,20,29.98,-9999.0,NNW,5.8,-,N/A,,Unknown,340,2013-10-01 18:52:00
2:52 PM,73.9,28.9,19,29.96,-9999.0,WNW,5.8,-,N/A,,Unknown,300,2013-10-01 19:52:00
3:52 PM,75.0,28.9,18,29.95,-9999.0,Calm,Calm,-,N/A,,Unknown,0,2013-10-01 20:52:00
4:52 PM,73.9,28.9,19,29.94,-9999.0,WSW,5.8,-,N/A,,Unknown,240,2013-10-01 21:52:00
5:52 PM,73.0,30.0,20,29.94,-9999.0,WSW,4.6,-,N/A,,Unknown,240,2013-10-01 22:52:00
6:52 PM,66.9,35.1,31,29.95,-9999.0,SSW,5.8,-,N/A,,Unknown,200,2013-10-01 23:52:00
7:52 PM,63.0,35.1,35,29.96,-9999.0,South,5.8,-,N/A,,Unknown,180,2013-10-02 00:52:00
8:52 PM,57.9,37.9,47,29.97,-9999.0,South,5.8,-,N/A,,Unknown,170,2013-10-02 01:52:00
9:52 PM,57.0,37.0,47,29.97,-9999.0,South,5.8,-,N/A,,Unknown,180,2013-10-02 02:52:00
10:52 PM,53.1,41.0,64,29.97,-9999.0,South,8.1,-,N/A,,Unknown,170,2013-10-02 03:52:00
11:52 PM,52.0,39.9,63,29.96,-9999.0,South,8.1,-,N/A,,Unknown,170,2013-10-02 04:52:00